Weather History for Meriden, CT

Change the Weather History Date:

Sunday, February 3, 2013

  Actual Average (KHVN) Record (KHVN)
Temperature  
Mean Temperature 24 °F -  
Max Temperature 30 °F 37 °F 39 °F (2014)
Min Temperature 19 °F 23 °F 23 °F (2014)
Degree Days  
Heating Degree Days 40    
Moisture  
Dew Point 15 °F    
Average Humidity 68    
Maximum Humidity 88    
Minimum Humidity 46    
Precipitation  
Precipitation 0.00 in - - ()
Sea Level Pressure  
Sea Level Pressure 29.89 in    
Wind  
Wind Speed 2 mph (NW)    
Max Wind Speed 7 mph    
Max Gust Speed -    
Visibility 9 miles    
Events Snow    
Averages and records for this station are not official NWS values.
T = Trace of Precipitation, MM = Missing Value Source: NWS Daily Summary

Daily Weather History Graph

Daily Weather History Graph

Search for Another Location

Airport:

Trip Planner

Search our weather history database for the weather conditions in past years. The results will help you decide how hot, cold, wet, or windy it might be!

Date:

Astronomy

Feb. 03, 2013 Rise Set
Actual Time 7:00 AM EST 5:10 PM EST
Civil Twilight 6:31 AM EST 5:39 PM EST
Nautical Twilight 5:58 AM EST 6:12 PM EST
Astronomical Twilight 5:26 AM EST 6:44 PM EST
Moon 12:25 AM EST (2/3) 10:44 AM EST (2/3)
Length of Visible Light 11h 07m
Length of Day
10h 09m
Waning Gibbous, 49% of the Moon is Illuminated
Feb 3
Waning Gibbous
Feb 10
New
Feb 17
First Quarter
Feb 25
Full
Mar 4
Last Quarter

Hourly Weather History & Observations

Time (EST) Temp. Windchill Dew Point Humidity Pressure Visibility Wind Dir Wind Speed Gust Speed Precip Events Conditions
12:53 AM 23.0 °F - 18.0 °F 81% 30.06 in 4.0 mi Calm Calm - 0.00 in Snow Light Snow
1:53 AM 23.0 °F - 18.0 °F 81% 30.04 in 8.0 mi Calm Calm - 0.00 in   Overcast
2:53 AM 23.0 °F - 19.0 °F 85% 30.01 in 6.0 mi Calm Calm - 0.00 in   Overcast
3:53 AM 21.9 °F 17.2 °F 17.1 °F 82% 29.99 in 8.0 mi NW 3.5 mph - N/A   Overcast
4:53 AM 21.9 °F - 17.1 °F 82% 29.98 in 10.0 mi Calm Calm - 0.00 in   Overcast
5:53 AM 21.0 °F 16.2 °F 16.0 °F 81% 29.96 in 10.0 mi North 3.5 mph - N/A   Clear
6:53 AM 19.0 °F - 16.0 °F 88% 29.98 in 10.0 mi Calm Calm - N/A   Clear
7:53 AM 19.0 °F - 16.0 °F 88% 29.99 in 6.0 mi Calm Calm - N/A   Clear
8:53 AM 23.0 °F - 18.0 °F 81% 29.97 in 10.0 mi Calm Calm - N/A   Clear
9:53 AM 25.0 °F - 16.0 °F 69% 29.95 in 10.0 mi Calm Calm - N/A   Clear
10:53 AM 27.0 °F 23.0 °F 16.0 °F 63% 29.93 in 10.0 mi Variable 3.5 mph - N/A   Partly Cloudy
11:53 AM 28.9 °F 25.2 °F 15.1 °F 56% 29.88 in 10.0 mi North 3.5 mph - N/A   Clear
12:53 PM 30.0 °F 23.2 °F 15.1 °F 54% 29.84 in 10.0 mi WNW 6.9 mph - N/A   Clear
1:53 PM 30.9 °F 25.2 °F 12.9 °F 47% 29.81 in 10.0 mi NNW 5.8 mph - N/A   Clear
2:53 PM 30.9 °F 25.2 °F 12.0 °F 46% 29.80 in 10.0 mi NW 5.8 mph - N/A   Mostly Cloudy
3:53 PM 30.9 °F 26.2 °F 12.9 °F 47% 29.78 in 10.0 mi NNW 4.6 mph - N/A   Mostly Cloudy
4:53 PM 30.0 °F 25.2 °F 12.9 °F 49% 29.77 in 10.0 mi NNW 4.6 mph - N/A   Clear
5:53 PM 28.9 °F 25.2 °F 12.0 °F 49% 29.78 in 10.0 mi NW 3.5 mph - N/A   Mostly Cloudy
6:53 PM 28.9 °F 25.2 °F 12.0 °F 49% 29.79 in 10.0 mi NNW 3.5 mph - N/A   Scattered Clouds
7:53 PM 25.0 °F 20.7 °F 15.1 °F 66% 29.79 in 10.0 mi WNW 3.5 mph - N/A   Clear
8:53 PM 21.9 °F - 15.1 °F 75% 29.80 in 10.0 mi Calm Calm - N/A   Clear
9:53 PM 24.1 °F 18.2 °F 12.9 °F 62% 29.80 in 10.0 mi WNW 4.6 mph - N/A   Clear
10:53 PM 21.0 °F - 14.0 °F 74% 29.79 in 10.0 mi Calm Calm - N/A   Clear
11:53 PM 19.9 °F - 14.0 °F 78% 29.80 in 10.0 mi Calm Calm - N/A   Clear